Cook, MN

3:47 AM CDT on April 29, 2017 (GMT -0500)
Cook Municipal

Weather History for KCQM - November, 2012

Change the Weather History Date:

Sunday, November 4, 2012

  Actual Average Record
Temperature  
Mean Temperature 24 °F -  
Max Temperature 33 °F 38 °F 66 °F (2008)
Min Temperature 14 °F 24 °F 10 °F (1998)
Degree Days  
Heating Degree Days 42    
Moisture  
Dew Point 20 °F    
Average Humidity 87    
Maximum Humidity 100    
Minimum Humidity 60    
Precipitation  
Precipitation 0.00 in - - ()
Sea Level Pressure  
Sea Level Pressure 30.24 in    
Wind  
Wind Speed 0 mph (ESE)    
Max Wind Speed 7 mph    
Max Gust Speed -    
Visibility 9 miles    
Events Fog    
Averages and records for this station are not official NWS values.
T = Trace of Precipitation, MM = Missing Value Source: NWS Daily Summary

Daily Weather History Graph

Daily Weather History Graph

Search for Another Location

Airport or City:

Trip Planner

Search our weather history database for the weather conditions in past years. The results will help you decide how hot, cold, wet, or windy it might be!

Date:

Astronomy

Nov. 04, 2012 Rise Set
Actual Time 7:00 AM CST 4:47 PM CST
Civil Twilight 6:27 AM CST 5:20 PM CST
Nautical Twilight 5:51 AM CST 5:56 PM CST
Astronomical Twilight 5:15 AM CST 6:32 PM CST
Moon 9:22 PM CST (11/4) 11:49 AM CST (11/4)
Length of Visible Light 10h 52m
Length of Day
9h 46m
Waning Gibbous, 72% of the Moon is Illuminated
Nov 4
Waning Gibbous
Nov 6
Last Quarter
Nov 13
New
Nov 20
First Quarter
Nov 28
Full

Hourly Weather History & Observations

Time (CST) Temp. Windchill Dew Point Humidity Pressure Visibility Wind Dir Wind Speed Gust Speed Precip Events Conditions
12:16 AM 19.4 °F - 19.4 °F 100% 30.23 in 10.0 mi Calm Calm - N/A   Clear
12:37 AM 19.4 °F - 17.6 °F 93% 30.23 in 10.0 mi Calm Calm - N/A   Clear
12:55 AM 19.4 °F - 17.6 °F 93% 30.23 in 10.0 mi Calm Calm - N/A   Clear
1:17 AM 19.4 °F - 17.6 °F 93% 30.24 in 10.0 mi Calm Calm - N/A   Clear
1:37 AM 19.4 °F - 17.6 °F 93% 30.24 in 10.0 mi Calm Calm - N/A   Clear
1:56 AM 19.4 °F - 17.6 °F 93% 30.24 in 10.0 mi Calm Calm - N/A   Clear
1:17 AM 17.6 °F - 17.6 °F 100% 30.24 in 10.0 mi Calm Calm - N/A   Clear
1:37 AM 17.6 °F - 17.6 °F 100% 30.24 in 10.0 mi Calm Calm - N/A   Clear
1:56 AM 17.6 °F - 15.8 °F 93% 30.24 in 10.0 mi Calm Calm - N/A   Clear
2:17 AM 17.6 °F - 15.8 °F 93% 30.25 in 10.0 mi Calm Calm - N/A   Clear
2:37 AM 15.8 °F - 15.8 °F 100% 30.25 in 10.0 mi Calm Calm - N/A   Clear
2:56 AM 15.8 °F - 15.8 °F 100% 30.25 in 10.0 mi Calm Calm - N/A   Clear
3:17 AM 15.8 °F - 14.0 °F 93% 30.25 in 10.0 mi Calm Calm - N/A   Clear
3:36 AM 15.8 °F - 14.0 °F 93% 30.25 in 10.0 mi Calm Calm - N/A   Clear
3:56 AM 15.8 °F - 12.2 °F 86% 30.25 in 10.0 mi Calm Calm - N/A   Clear
4:17 AM 14.0 °F - 12.2 °F 93% 30.25 in 10.0 mi Calm Calm - N/A   Clear
4:36 AM 14.0 °F - 12.2 °F 93% 30.26 in 10.0 mi Calm Calm - N/A   Mostly Cloudy
4:56 AM 14.0 °F - 12.2 °F 93% 30.26 in 3.0 mi Calm Calm - N/A   Overcast
5:17 AM 15.8 °F - 12.2 °F 86% 30.26 in 2.5 mi Calm Calm - N/A   Scattered Clouds
5:36 AM 14.0 °F - 12.2 °F 93% 30.26 in 10.0 mi Calm Calm - N/A   Mostly Cloudy
5:56 AM 14.0 °F - 12.2 °F 93% 30.26 in 0.8 mi Calm Calm - N/A   Overcast
6:17 AM 15.8 °F - 12.2 °F 86% 30.26 in 1.0 mi Calm Calm - N/A   Overcast
6:36 AM 17.6 °F - 15.8 °F 93% 30.26 in 0.2 mi Calm Calm - N/A Fog Light Freezing Fog
6:57 AM 17.6 °F - 15.8 °F 93% 30.26 in 0.2 mi Calm Calm - N/A Fog Light Freezing Fog
7:17 AM 19.4 °F - 17.6 °F 93% 30.26 in 0.2 mi Calm Calm - N/A Fog Light Freezing Fog
7:36 AM 19.4 °F - 19.4 °F 100% 30.26 in 1.5 mi Calm Calm - N/A   Overcast
7:57 AM 21.2 °F - 19.4 °F 93% 30.26 in 7.0 mi Calm Calm - N/A   Overcast
8:17 AM 21.2 °F - 21.2 °F 100% 30.26 in 7.0 mi Calm Calm - N/A   Overcast
8:36 AM 23.0 °F - 21.2 °F 93% 30.26 in 10.0 mi Calm Calm - N/A   Overcast
8:57 AM 23.0 °F - 23.0 °F 100% 30.26 in 10.0 mi Calm Calm - N/A   Overcast
9:17 AM 24.8 °F - 24.8 °F 100% 30.25 in 10.0 mi Calm Calm - N/A   Overcast
9:36 AM 24.8 °F - 24.8 °F 100% 30.25 in 10.0 mi Calm Calm - N/A   Overcast
9:57 AM 26.6 °F - 26.6 °F 100% 30.25 in 10.0 mi Calm Calm - N/A   Overcast
10:16 AM 26.6 °F - 26.6 °F 100% 30.25 in 10.0 mi Calm Calm - N/A   Overcast
10:37 AM 28.4 °F - 28.4 °F 100% 30.25 in 10.0 mi Calm Calm - N/A   Overcast
10:57 AM 28.4 °F - 28.4 °F 100% 30.25 in 10.0 mi Calm Calm - N/A   Overcast
11:16 AM 30.2 °F - 28.4 °F 93% 30.25 in 10.0 mi Calm Calm - N/A   Overcast
11:37 AM 30.2 °F - 26.6 °F 86% 30.24 in 10.0 mi Calm Calm - N/A   Overcast
11:56 AM 30.2 °F 23.4 °F 24.8 °F 80% 30.24 in 10.0 mi SE 6.9 mph - N/A   Overcast
12:16 PM 30.2 °F 25.4 °F 24.8 °F 80% 30.24 in 10.0 mi ESE 4.6 mph - N/A   Overcast
12:37 PM 30.2 °F 25.4 °F 24.8 °F 80% 30.24 in 10.0 mi East 4.6 mph - N/A   Overcast
12:56 PM 32.0 °F - 24.8 °F 75% 30.23 in 10.0 mi Calm Calm - N/A   Overcast
1:16 PM 32.0 °F - 24.8 °F 75% 30.23 in 10.0 mi Calm Calm - N/A   Overcast
1:37 PM 32.0 °F 25.6 °F 24.8 °F 75% 30.22 in 10.0 mi ESE 6.9 mph - N/A   Overcast
1:56 PM 32.0 °F 28.7 °F 24.8 °F 75% 30.22 in 10.0 mi SE 3.5 mph - N/A   Overcast
2:16 PM 30.2 °F 25.4 °F 24.8 °F 80% 30.22 in 10.0 mi East 4.6 mph - N/A   Overcast
2:36 PM 32.0 °F 28.7 °F 24.8 °F 75% 30.22 in 10.0 mi East 3.5 mph - N/A   Overcast
2:56 PM 32.0 °F - 23.0 °F 69% 30.22 in 10.0 mi Calm Calm - N/A   Mostly Cloudy
3:17 PM 33.8 °F - 23.0 °F 65% 30.22 in 10.0 mi Calm Calm - N/A   Scattered Clouds
3:36 PM 33.8 °F - 23.0 °F 65% 30.22 in 10.0 mi Calm Calm - N/A   Scattered Clouds
3:56 PM 33.8 °F 30.8 °F 21.2 °F 60% 30.22 in 10.0 mi East 3.5 mph - N/A   Scattered Clouds
4:17 PM 32.0 °F 27.5 °F 21.2 °F 64% 30.22 in 10.0 mi ENE 4.6 mph - N/A   Clear
4:36 PM 32.0 °F - 21.2 °F 64% 30.22 in 10.0 mi Calm Calm - N/A   Clear
4:56 PM 30.2 °F - 21.2 °F 69% 30.22 in 10.0 mi Calm Calm - N/A   Clear
5:17 PM 28.4 °F - 21.2 °F 74% 30.23 in 10.0 mi Calm Calm - N/A   Clear
5:36 PM 28.4 °F - 21.2 °F 74% 30.23 in 10.0 mi Calm Calm - N/A   Clear
5:56 PM 26.6 °F - 21.2 °F 80% 30.23 in 10.0 mi Calm Calm - N/A   Clear
6:17 PM 26.6 °F - 21.2 °F 80% 30.24 in 10.0 mi Calm Calm - N/A   Clear
6:37 PM 24.8 °F - 21.2 °F 86% 30.24 in 10.0 mi Calm Calm - N/A   Clear
6:56 PM 26.6 °F - 21.2 °F 80% 30.24 in 10.0 mi Calm Calm - N/A   Clear
7:16 PM 24.8 °F - 19.4 °F 80% 30.24 in 10.0 mi Calm Calm - N/A   Clear
7:36 PM 24.8 °F - 21.2 °F 86% 30.24 in 10.0 mi Calm Calm - N/A   Scattered Clouds
7:57 PM 23.0 °F - 19.4 °F 86% 30.24 in 10.0 mi Calm Calm - N/A   Mostly Cloudy
8:16 PM 24.8 °F - 21.2 °F 86% 30.24 in 10.0 mi Calm Calm - N/A   Overcast
8:36 PM 24.8 °F - 21.2 °F 86% 30.24 in 10.0 mi Calm Calm - N/A   Overcast
8:56 PM 26.6 °F - 21.2 °F 80% 30.24 in 10.0 mi Calm Calm - N/A   Overcast
9:16 PM 26.6 °F - 21.2 °F 80% 30.24 in 10.0 mi Calm Calm - N/A   Overcast
9:37 PM 24.8 °F - 21.2 °F 86% 30.24 in 10.0 mi Calm Calm - N/A   Overcast
9:56 PM 24.8 °F - 21.2 °F 86% 30.24 in 10.0 mi Calm Calm - N/A   Overcast
10:16 PM 24.8 °F - 21.2 °F 86% 30.25 in 10.0 mi Calm Calm - N/A   Overcast
10:37 PM 24.8 °F - 21.2 °F 86% 30.24 in 10.0 mi Calm Calm - N/A   Overcast